Flag for Canada Weather past 2 weeks in Bathurst, New Brunswick, Canada

Now
66 °F

Overcast.


Feels Like: 66 °F
Forecast: 61 / 74 °F
Wind: 6 mph from South

Location: Bathurst Airport

Current Time: Jul 2, 2015 at 3:08:03 AM

Latest Report: Jul 2, 2015 at 2:00 AM


Visibility: 15 mi

Pressure: 29.66 "Hg

Humidity: 78%

Dew point: 59 °F

Location of BathurstLocation

Historic Weather in Bathurst — Graph

°F

Bathurst temperature yesterday

Maximum temperature yesterday: 79 °F (at 3:00 PM)
Minimum temperature yesterday: 54 °F (at 5:00 AM)
Average temperature yesterday: 66 °F

Past Weeks' High & Low Weather Summary

 TemperatureHumidityPressure
High79 °F (Jul 1, 3:00 PM)100% (Jun 19, 8:00 AM)30.16 "Hg (Jun 19, 8:00 AM)
Low41 °F (Jun 27, 4:00 AM)27% (Jun 17, 4:00 PM)29.60 "Hg (Jun 24, 6:00 AM)
Average59 °F73%29.91 "Hg
* Reported Jun 17 1:00 AM — Jul 2 1:00 AM, Bathurst, Weather by CustomWeather, © 2015

Note: Actual official high and low records may vary slightly from our data, if they occured in-between our weather recording intervals... More about our weather records

Advertising

Bathurst weather history for previous 24 hours

 ConditionsComfort  
Time TempWeatherWind HumidityBarometerVisibility
1:00 AM
Thu, Jul 2
66 °FOvercast.2 mph73%29.67 "Hg15 mi
12:00 AM66 °FOvercast.6 mph73%29.70 "Hg15 mi
11:00 PM
Wed, Jul 1
66 °FOvercast.7 mph78%29.74 "Hg15 mi
10:00 PM66 °FLight rain. Overcast.8 mph78%29.75 "Hg12 mi
9:00 PM68 °FLight rain. More clouds than sun.6 mph73%29.77 "Hg12 mi
8:00 PM70 °FLight rain. Mostly cloudy.9 mph69%29.77 "Hg12 mi
7:00 PM70 °FLight rain. More clouds than sun.7 mph69%29.79 "Hg12 mi
6:00 PM72 °FLight rain. More clouds than sun.9 mph65%29.82 "Hg12 mi
5:00 PM75 °FOvercast.10 mph61%29.82 "Hg15 mi
4:00 PM79 °FMostly cloudy.7 mph48%29.83 "Hg15 mi
3:00 PM79 °FCloudy.9 mph45%29.86 "Hg15 mi
2:00 PM77 °FMostly cloudy.9 mph51%29.88 "Hg15 mi
1:00 PM75 °FOvercast.8 mph61%29.90 "Hg15 mi
12:00 PM77 °FOvercast.6 mph54%29.90 "Hg15 mi
11:00 AM73 °FOvercast.3 mph61%29.92 "Hg15 mi
10:00 AM70 °FPartly sunny.6 mph60%29.93 "Hg15 mi
9:00 AM66 °FPassing clouds.2 mph73%29.95 "Hg15 mi
8:00 AM61 °FPassing clouds.2 mph83%29.95 "Hg15 mi
7:00 AM55 °FPassing clouds.No wind94%29.95 "Hg15 mi
6:00 AM54 °FPassing clouds.No wind94%29.95 "Hg10 mi
5:00 AM54 °FPassing clouds.3 mph94%29.94 "Hg15 mi
4:00 AM55 °FMostly cloudy.No wind94%29.94 "Hg15 mi
3:00 AM57 °FMostly cloudy.2 mph88%29.94 "Hg15 mi
Weather by CustomWeather, © 2015

See weather overviewHow to use our weather pages